owner,sensor,date,latitude,longitude,vertical_datum,wind_speed,wind_to_direction,wind_speed_of_gust,qcFlag 
TABS,ioos:station:wmo:42046:1,2005-04-16T21:00:00Z,27.8903,-94.0367,4.0,0.0,0.0,1.0,'11111222,11111222,11111222' 
TABS,ioos:station:wmo:42046:1,2005-04-24T00:00:00Z,27.8903,-94.0367,4.0,7.093891739,169.2763882,9.29,'11111222,11111222,11111222' 
TABS,ioos:station:wmo:42046:1,2005-04-24T00:30:00Z,27.8903,-94.0367,4.0,7.002206795,165.5273944,8.8,'11111222,11111222,11111222' 
TABS,ioos:station:wmo:42046:1,2005-04-24T01:00:00Z,27.8903,-94.0367,4.0,6.74513899,161.5921663,8.55,'11111222,11111222,11111222' 
TABS,ioos:station:wmo:42046:1,2005-04-24T01:30:00Z,27.8903,-94.0367,4.0,6.952330545,168.803441,9.41,'11111222,11111222,11111222' 
TABS,ioos:station:wmo:42046:1,2005-04-24T02:00:00Z,27.8903,-94.0367,4.0,6.815254948,165.9028301,8.99,'11111222,11111222,11111222' 
TABS,ioos:station:wmo:42046:1,2005-04-24T02:30:00Z,27.8903,-94.0367,4.0,7.335564055,170.2682556,9.64,'11111222,11111222,11111222' 
TABS,ioos:station:wmo:42046:1,2005-04-24T03:00:00Z,27.8903,-94.0367,4.0,7.36562964,169.8345394,9.89,'11111222,11111222,11111222' 
TABS,ioos:station:wmo:42046:1,2005-04-24T03:30:00Z,27.8903,-94.0367,4.0,7.265872281,183.7880493,9.79,'11111222,11111222,11111222' 
TABS,ioos:station:wmo:42046:1,2005-04-24T04:00:00Z,27.8903,-94.0367,4.0,7.186932586,186.5516795,10.05,'11111222,11111222,11111222' 
TABS,ioos:station:wmo:42046:1,2005-04-24T04:30:00Z,27.8903,-94.0367,4.0,6.777285592,193.1342021,8.88,'11111222,11111222,11111222' 
TABS,ioos:station:wmo:42046:1,2005-04-24T05:00:00Z,27.8903,-94.0367,4.0,6.562994743,186.5621261,8.4,'11111222,11111222,11111222' 
TABS,ioos:station:wmo:42046:1,2005-04-24T05:30:00Z,27.8903,-94.0367,4.0,6.374237209,188.7531862,8.25,'11111222,11111222,11111222' 
TABS,ioos:station:wmo:42046:1,2005-04-24T06:00:00Z,27.8903,-94.0367,4.0,6.783524158,201.5349336,8.96,'11111222,11111222,11111222' 
TABS,ioos:station:wmo:42046:1,2005-04-24T06:30:00Z,27.8903,-94.0367,4.0,6.094070889,199.0594861,8.43,'11111222,11111222,11111222' 
TABS,ioos:station:wmo:42046:1,2005-04-24T07:00:00Z,27.8903,-94.0367,4.0,6.392472135,190.2729659,8.41,'11111222,11111222,11111222' 
TABS,ioos:station:wmo:42046:1,2005-04-24T07:30:00Z,27.8903,-94.0367,4.0,5.854545243,197.2899748,7.66,'11111222,11111222,11111222' 
TABS,ioos:station:wmo:42046:1,2005-04-24T08:00:00Z,27.8903,-94.0367,4.0,5.857115331,199.2394298,7.96,'11111222,11111222,11111222' 
TABS,ioos:station:wmo:42046:1,2005-04-24T08:30:00Z,27.8903,-94.0367,4.0,6.089868636,196.798543,8.04,'11111222,11111222,11111222' 
TABS,ioos:station:wmo:42046:1,2005-04-24T09:00:00Z,27.8903,-94.0367,4.0,5.991877836,204.5549006,7.58,'11111222,11111222,11111222' 
TABS,ioos:station:wmo:42046:1,2005-04-24T09:30:00Z,27.8903,-94.0367,4.0,5.957784823,198.191824,8.28,'11111222,11111222,11111222' 
TABS,ioos:station:wmo:42046:1,2005-04-24T10:00:00Z,27.8903,-94.0367,4.0,5.804084769,200.6833,8.01,'11111222,11111222,11111222' 
TABS,ioos:station:wmo:42046:1,2005-04-24T10:30:00Z,27.8903,-94.0367,4.0,5.650353971,205.0231713,7.59,'11111222,11111222,11111222' 
TABS,ioos:station:wmo:42046:1,2005-04-24T11:00:00Z,27.8903,-94.0367,4.0,5.232590181,206.0755051,7.11,'11111222,11111222,11111222' 
TABS,ioos:station:wmo:42046:1,2005-04-24T11:30:00Z,27.8903,-94.0367,4.0,5.21724065,210.3988671,7.02,'11111222,11111222,11111222' 
TABS,ioos:station:wmo:42046:1,2005-04-24T12:00:00Z,27.8903,-94.0367,4.0,5.545962495,212.2573903,7.83,'11111222,11111222,11111222' 
TABS,ioos:station:wmo:42046:1,2005-04-24T12:30:00Z,27.8903,-94.0367,4.0,5.497135618,213.9503694,7.5,'11111222,11111222,11111222' 
TABS,ioos:station:wmo:42046:1,2005-04-24T13:00:00Z,27.8903,-94.0367,4.0,5.607040217,217.9736902,7.65,'11111222,11111222,11111222' 
TABS,ioos:station:wmo:42046:1,2005-04-24T13:30:00Z,27.8903,-94.0367,4.0,5.324518758,225.076195,7.05,'11111222,11111222,11111222' 
TABS,ioos:station:wmo:42046:1,2005-04-24T14:00:00Z,27.8903,-94.0367,4.0,5.322865769,217.9034277,6.85,'11111222,11111222,11111222' 
TABS,ioos:station:wmo:42046:1,2005-04-24T14:30:00Z,27.8903,-94.0367,4.0,5.389341333,223.7972238,7.56,'11111222,11111222,11111222' 
TABS,ioos:station:wmo:42046:1,2005-04-24T15:00:00Z,27.8903,-94.0367,4.0,5.509428282,230.1545762,7.93,'11111222,11111222,11111222' 
TABS,ioos:station:wmo:42046:1,2005-04-24T15:30:00Z,27.8903,-94.0367,4.0,5.519574259,235.7054063,8.06,'11111222,11111222,11111222' 
TABS,ioos:station:wmo:42046:1,2005-04-24T16:00:00Z,27.8903,-94.0367,4.0,5.094349811,237.9946916,7.77,'11111222,11111222,11111222' 
TABS,ioos:station:wmo:42046:1,2005-04-24T16:30:00Z,27.8903,-94.0367,4.0,4.763412642,231.7347705,6.76,'11111222,11111222,11111222' 
TABS,ioos:station:wmo:42046:1,2005-04-24T17:00:00Z,27.8903,-94.0367,4.0,5.139309292,250.6836924,7.0,'11111222,11111222,11111222' 
TABS,ioos:station:wmo:42046:1,2005-04-24T17:30:00Z,27.8903,-94.0367,4.0,4.262030033,239.7049269,6.18,'11111222,11111222,11111222' 
TABS,ioos:station:wmo:42046:1,2005-04-24T18:00:00Z,27.8903,-94.0367,4.0,4.699659562,252.4132855,6.39,'11111222,11111222,11111222' 
TABS,ioos:station:wmo:42046:1,2005-04-24T18:30:00Z,27.8903,-94.0367,4.0,4.568106829,248.1520597,6.44,'11111222,11111222,11111222' 
TABS,ioos:station:wmo:42046:1,2005-04-24T19:00:00Z,27.8903,-94.0367,4.0,4.465422712,250.9158796,6.39,'11111222,11111222,11111222' 
TABS,ioos:station:wmo:42046:1,2005-04-24T19:30:00Z,27.8903,-94.0367,4.0,4.476159068,265.1300697,6.36,'11111222,11111222,11111222' 
TABS,ioos:station:wmo:42046:1,2005-04-24T20:00:00Z,27.8903,-94.0367,4.0,4.160192303,270.5509027,5.81,'11111222,11111222,11111222' 
TABS,ioos:station:wmo:42046:1,2005-04-24T20:30:00Z,27.8903,-94.0367,4.0,3.443094538,274.9985607,5.12,'11111222,11111222,11111222' 
TABS,ioos:station:wmo:42046:1,2005-04-24T21:00:00Z,27.8903,-94.0367,4.0,3.832701397,288.2458119,5.2,'11111222,11111222,11111222' 
TABS,ioos:station:wmo:42046:1,2005-04-24T21:30:00Z,27.8903,-94.0367,4.0,2.74040143,286.3187084,4.42,'11111222,11111222,11111222' 
TABS,ioos:station:wmo:42046:1,2005-04-24T22:00:00Z,27.8903,-94.0367,4.0,3.490171916,290.4599281,4.59,'11111222,11111222,11111222' 
TABS,ioos:station:wmo:42046:1,2005-04-24T22:30:00Z,27.8903,-94.0367,4.0,4.230756434,296.9889449,6.08,'11111222,11111222,11111222' 
TABS,ioos:station:wmo:42046:1,2005-04-24T23:00:00Z,27.8903,-94.0367,4.0,4.18646629,300.4238395,5.94,'11111222,11111222,11111222' 
TABS,ioos:station:wmo:42046:1,2005-04-24T23:30:00Z,27.8903,-94.0367,4.0,4.093336048,318.1687371,6.18,'11111222,11111222,11111222' 
TABS,ioos:station:wmo:42046:1,2005-04-25T00:00:00Z,27.8903,-94.0367,4.0,4.722393461,119.0078196,5.98,'11111222,11111222,11111222' 
TABS,ioos:station:wmo:42046:1,2005-04-25T00:30:00Z,27.8903,-94.0367,4.0,4.87239161,118.3011105,5.97,'11111222,11111222,11111222' 
TABS,ioos:station:wmo:42046:1,2005-04-25T01:00:00Z,27.8903,-94.0367,4.0,4.701063709,141.9115266,6.43,'11111222,11111222,11111222' 
TABS,ioos:station:wmo:42046:1,2005-04-25T01:30:00Z,27.8903,-94.0367,4.0,5.120156248,134.0507511,6.7,'11111222,11111222,11111222' 
TABS,ioos:station:wmo:42046:1,2005-04-25T02:00:00Z,27.8903,-94.0367,4.0,4.967836551,137.2844014,7.1,'11111222,11111222,11111222' 
TABS,ioos:station:wmo:42046:1,2005-04-25T02:30:00Z,27.8903,-94.0367,4.0,4.431365478,140.3106148,6.32,'11111222,11111222,11111222' 
TABS,ioos:station:wmo:42046:1,2005-04-25T03:00:00Z,27.8903,-94.0367,4.0,3.820994635,137.1214071,5.26,'11111222,11111222,11111222' 
TABS,ioos:station:wmo:42046:1,2005-04-25T03:30:00Z,27.8903,-94.0367,4.0,3.451898029,140.4072524,4.53,'11111222,11111222,11111222' 
TABS,ioos:station:wmo:42046:1,2005-04-25T04:00:00Z,27.8903,-94.0367,4.0,3.394186206,148.3706645,4.98,'11111222,11111222,11111222' 
TABS,ioos:station:wmo:42046:1,2005-04-25T04:30:00Z,27.8903,-94.0367,4.0,3.547520261,145.6830857,4.96,'11111222,11111222,11111222' 
TABS,ioos:station:wmo:42046:1,2005-04-25T05:00:00Z,27.8903,-94.0367,4.0,3.720349446,133.6934174,4.86,'11111222,11111222,11111222' 
TABS,ioos:station:wmo:42046:1,2005-04-25T05:30:00Z,27.8903,-94.0367,4.0,3.837629477,132.043022,6.21,'11111222,11111222,11111222' 
TABS,ioos:station:wmo:42046:1,2005-04-25T06:00:00Z,27.8903,-94.0367,4.0,3.603123645,129.2561708,5.02,'11111222,11111222,11111222' 
TABS,ioos:station:wmo:42046:1,2005-04-25T06:30:00Z,27.8903,-94.0367,4.0,3.11777164,147.1767268,4.48,'11111222,11111222,11111222' 
TABS,ioos:station:wmo:42046:1,2005-04-25T07:00:00Z,27.8903,-94.0367,4.0,3.726459446,134.8915954,5.25,'11111222,11111222,11111222' 
TABS,ioos:station:wmo:42046:1,2005-04-25T07:30:00Z,27.8903,-94.0367,4.0,3.771604433,141.459117,5.15,'11111222,11111222,11111222' 
TABS,ioos:station:wmo:42046:1,2005-04-25T08:00:00Z,27.8903,-94.0367,4.0,4.19223091,143.7317625,5.94,'11111222,11111222,11111222' 
TABS,ioos:station:wmo:42046:1,2005-04-25T08:30:00Z,27.8903,-94.0367,4.0,4.3918561,140.7292536,6.25,'11111222,11111222,11111222' 
TABS,ioos:station:wmo:42046:1,2005-04-25T09:00:00Z,27.8903,-94.0367,4.0,4.908543572,141.2858038,6.63,'11111222,11111222,11111222' 
TABS,ioos:station:wmo:42046:1,2005-04-25T09:30:00Z,27.8903,-94.0367,4.0,4.901112119,136.0749997,6.73,'11111222,11111222,11111222' 
TABS,ioos:station:wmo:42046:1,2005-04-25T10:00:00Z,27.8903,-94.0367,4.0,5.184640778,130.541688,7.4,'11111222,11111222,11111222' 
TABS,ioos:station:wmo:42046:1,2005-04-25T10:30:00Z,27.8903,-94.0367,4.0,4.108345166,134.7044716,5.93,'11111222,11111222,11111222' 
TABS,ioos:station:wmo:42046:1,2005-04-25T11:00:00Z,27.8903,-94.0367,4.0,3.859766832,152.7049572,5.54,'11111222,11111222,11111222' 
TABS,ioos:station:wmo:42046:1,2005-04-25T11:30:00Z,27.8903,-94.0367,4.0,4.466598258,167.4575186,6.61,'11111222,11111222,11111222' 
TABS,ioos:station:wmo:42046:1,2005-04-25T12:00:00Z,27.8903,-94.0367,4.0,4.327089091,148.5142262,5.79,'11111222,11111222,11111222' 
TABS,ioos:station:wmo:42046:1,2005-04-25T12:30:00Z,27.8903,-94.0367,4.0,8.436515869,141.2556417,11.36,'11111222,11111222,11111222' 
TABS,ioos:station:wmo:42046:1,2005-04-25T13:00:00Z,27.8903,-94.0367,4.0,7.667346347,151.0618042,10.75,'11111222,11111222,11111222' 
TABS,ioos:station:wmo:42046:1,2005-04-25T13:30:00Z,27.8903,-94.0367,4.0,5.150009709,168.6903044,7.16,'11111222,11111222,11111222' 
TABS,ioos:station:wmo:42046:1,2005-04-25T14:00:00Z,27.8903,-94.0367,4.0,3.656583104,131.2304707,5.26,'11111222,11111222,11111222' 
TABS,ioos:station:wmo:42046:1,2005-04-25T14:30:00Z,27.8903,-94.0367,4.0,2.982918034,116.4795095,4.11,'11111222,11111222,11111222' 
TABS,ioos:station:wmo:42046:1,2005-04-25T15:00:00Z,27.8903,-94.0367,4.0,4.14304236,100.0083773,5.5,'11111222,11111222,11111222' 
TABS,ioos:station:wmo:42046:1,2005-04-25T15:30:00Z,27.8903,-94.0367,4.0,3.041381265,99.462721,4.85,'11111222,11111222,11111222' 
TABS,ioos:station:wmo:42046:1,2005-04-25T16:00:00Z,27.8903,-94.0367,4.0,5.234214363,92.2997757,7.35,'11111222,11111222,11111222' 
TABS,ioos:station:wmo:42046:1,2005-04-25T16:30:00Z,27.8903,-94.0367,4.0,7.257857811,107.8112157,9.73,'11111222,11111222,11111222' 
TABS,ioos:station:wmo:42046:1,2005-04-25T17:00:00Z,27.8903,-94.0367,4.0,6.17683576,123.175869,8.06,'11111222,11111222,11111222' 
TABS,ioos:station:wmo:42046:1,2005-04-25T17:30:00Z,27.8903,-94.0367,4.0,6.134900162,118.5288244,8.08,'11111222,11111222,11111222' 
TABS,ioos:station:wmo:42046:1,2005-04-25T18:00:00Z,27.8903,-94.0367,4.0,6.023437557,131.230991,8.72,'11111222,11111222,11111222' 
TABS,ioos:station:wmo:42046:1,2005-04-25T18:30:00Z,27.8903,-94.0367,4.0,7.532994093,152.1425462,9.26,'11111222,11111222,11111222' 
TABS,ioos:station:wmo:42046:1,2005-04-25T19:00:00Z,27.8903,-94.0367,4.0,8.269588865,167.0731345,10.53,'11111222,11111222,11111222' 
TABS,ioos:station:wmo:42046:1,2005-04-25T19:30:00Z,27.8903,-94.0367,4.0,8.082870777,161.8342964,10.18,'11111222,11111222,11111222' 
TABS,ioos:station:wmo:42046:1,2005-04-25T20:00:00Z,27.8903,-94.0367,4.0,8.08282129,161.3859762,10.41,'11111222,11111222,11111222' 
TABS,ioos:station:wmo:42046:1,2005-04-25T20:30:00Z,27.8903,-94.0367,4.0,8.311245394,162.3501275,10.45,'11111222,11111222,11111222' 
TABS,ioos:station:wmo:42046:1,2005-04-25T21:00:00Z,27.8903,-94.0367,4.0,7.986019033,162.5863072,10.41,'11111222,11111222,11111222' 
TABS,ioos:station:wmo:42046:1,2005-04-25T21:30:00Z,27.8903,-94.0367,4.0,8.047639405,165.4632369,10.22,'11111222,11111222,11111222' 
TABS,ioos:station:wmo:42046:1,2005-04-25T22:00:00Z,27.8903,-94.0367,4.0,8.61446458,164.7217938,11.18,'11111222,11111222,11111222' 
TABS,ioos:station:wmo:42046:1,2005-04-25T22:30:00Z,27.8903,-94.0367,4.0,7.997205762,163.8088226,10.19,'11111222,11111222,11111222' 
TABS,ioos:station:wmo:42046:1,2005-04-25T23:00:00Z,27.8903,-94.0367,4.0,7.783064949,166.2496722,10.74,'11111222,11111222,11111222' 
TABS,ioos:station:wmo:42046:1,2005-04-25T23:30:00Z,27.8903,-94.0367,4.0,7.654051215,163.5304448,9.97,'11111222,11111222,11111222' 
TABS,ioos:station:wmo:42046:1,2005-04-26T00:00:00Z,27.8903,-94.0367,4.0,7.444366998,166.8787108,9.59,'11111222,11111222,11111222' 
TABS,ioos:station:wmo:42046:1,2005-04-26T00:30:00Z,27.8903,-94.0367,4.0,7.5769123,166.2574449,9.33,'11111222,11111222,11111222' 
TABS,ioos:station:wmo:42046:1,2005-04-26T01:00:00Z,27.8903,-94.0367,4.0,6.934414179,174.2896307,9.24,'11111222,11111222,11111222' 
TABS,ioos:station:wmo:42046:1,2005-04-26T01:30:00Z,27.8903,-94.0367,4.0,7.250889601,175.6499991,9.53,'11111222,11111222,11111222' 
TABS,ioos:station:wmo:42046:1,2005-04-26T02:00:00Z,27.8903,-94.0367,4.0,7.494664769,174.4874109,10.04,'11111222,11111222,11111222' 
TABS,ioos:station:wmo:42046:1,2005-04-26T02:30:00Z,27.8903,-94.0367,4.0,7.180174093,171.4300077,9.07,'11111222,11111222,11111222' 
TABS,ioos:station:wmo:42046:1,2005-04-26T03:00:00Z,27.8903,-94.0367,4.0,7.720317351,173.4551437,10.26,'11111222,11111222,11111222' 
TABS,ioos:station:wmo:42046:1,2005-04-26T03:30:00Z,27.8903,-94.0367,4.0,7.270557063,179.2909471,9.09,'11111222,11111222,11111222' 
TABS,ioos:station:wmo:42046:1,2005-04-26T04:00:00Z,27.8903,-94.0367,4.0,6.762669591,181.6101672,8.94,'11111222,11111222,11111222' 
TABS,ioos:station:wmo:42046:1,2005-04-26T04:30:00Z,27.8903,-94.0367,4.0,6.490007704,179.9119276,8.8,'11111222,11111222,11111222' 
TABS,ioos:station:wmo:42046:1,2005-04-26T05:00:00Z,27.8903,-94.0367,4.0,6.351322697,175.3040041,8.02,'11111222,11111222,11111222' 
TABS,ioos:station:wmo:42046:1,2005-04-26T05:30:00Z,27.8903,-94.0367,4.0,7.369084068,175.8758263,9.28,'11111222,11111222,11111222' 
TABS,ioos:station:wmo:42046:1,2005-04-26T06:00:00Z,27.8903,-94.0367,4.0,7.7261957,176.2897354,10.29,'11111222,11111222,11111222' 
TABS,ioos:station:wmo:42046:1,2005-04-26T06:30:00Z,27.8903,-94.0367,4.0,6.964854629,182.1395702,9.3,'11111222,11111222,11111222' 
TABS,ioos:station:wmo:42046:1,2005-04-26T07:00:00Z,27.8903,-94.0367,4.0,7.649535934,189.2531786,9.62,'11111222,11111222,11111222' 
TABS,ioos:station:wmo:42046:1,2005-04-26T07:30:00Z,27.8903,-94.0367,4.0,7.155333675,194.7355875,9.31,'11111222,11111222,11111222' 
TABS,ioos:station:wmo:42046:1,2005-04-26T08:00:00Z,27.8903,-94.0367,4.0,6.969146289,193.0194455,10.35,'11111222,11111222,11111222' 
TABS,ioos:station:wmo:42046:1,2005-04-26T08:30:00Z,27.8903,-94.0367,4.0,6.480933575,194.6582431,8.62,'11111222,11111222,11111222' 
TABS,ioos:station:wmo:42046:1,2005-04-26T09:00:00Z,27.8903,-94.0367,4.0,4.869630376,191.010142,6.46,'11111222,11111222,11111222' 
TABS,ioos:station:wmo:42046:1,2005-04-26T09:30:00Z,27.8903,-94.0367,4.0,3.940355314,185.8265389,4.98,'11111222,11111222,11111222' 
TABS,ioos:station:wmo:42046:1,2005-04-26T10:00:00Z,27.8903,-94.0367,4.0,4.195485669,192.2475492,5.29,'11111222,11111222,11111222' 
TABS,ioos:station:wmo:42046:1,2005-04-26T10:30:00Z,27.8903,-94.0367,4.0,4.539823785,187.5948361,5.59,'11111222,11111222,11111222' 
TABS,ioos:station:wmo:42046:1,2005-04-26T11:00:00Z,27.8903,-94.0367,4.0,5.369925512,188.567887,7.16,'11111222,11111222,11111222' 
TABS,ioos:station:wmo:42046:1,2005-04-26T11:30:00Z,27.8903,-94.0367,4.0,4.787692555,202.6016113,6.18,'11111222,11111222,11111222' 
TABS,ioos:station:wmo:42046:1,2005-04-26T12:00:00Z,27.8903,-94.0367,4.0,3.592130287,225.2256775,4.75,'11111222,11111222,11111222' 
TABS,ioos:station:wmo:42046:1,2005-04-26T12:30:00Z,27.8903,-94.0367,4.0,3.723613836,220.5346515,4.62,'11111222,11111222,11111222' 
TABS,ioos:station:wmo:42046:1,2005-04-26T13:00:00Z,27.8903,-94.0367,4.0,3.375218511,209.0712346,4.27,'11111222,11111222,11111222' 
TABS,ioos:station:wmo:42046:1,2005-04-26T13:30:00Z,27.8903,-94.0367,4.0,4.204628402,236.3478052,5.47,'11111222,11111222,11111222' 
TABS,ioos:station:wmo:42046:1,2005-04-26T14:00:00Z,27.8903,-94.0367,4.0,5.25282781,278.8705351,6.43,'11111222,11111222,11111222' 
TABS,ioos:station:wmo:42046:1,2005-04-26T14:30:00Z,27.8903,-94.0367,4.0,6.345210792,291.8348941,7.73,'11111222,11111222,11111222' 
TABS,ioos:station:wmo:42046:1,2005-04-26T15:00:00Z,27.8903,-94.0367,4.0,7.410492561,302.2101982,9.24,'11111222,11111222,11111222' 
TABS,ioos:station:wmo:42046:1,2005-04-26T15:30:00Z,27.8903,-94.0367,4.0,5.387633989,282.9786444,7.34,'11111222,11111222,11111222' 
TABS,ioos:station:wmo:42046:1,2005-04-26T16:00:00Z,27.8903,-94.0367,4.0,3.945072876,272.9059142,5.38,'11111222,11111222,11111222' 
TABS,ioos:station:wmo:42046:1,2005-04-26T16:30:00Z,27.8903,-94.0367,4.0,4.08871618,244.8138521,5.72,'11111222,11111222,11111222' 
TABS,ioos:station:wmo:42046:1,2005-04-26T17:00:00Z,27.8903,-94.0367,4.0,4.69754191,280.4248245,7.12,'11111222,11111222,11111222' 
TABS,ioos:station:wmo:42046:1,2005-04-26T17:30:00Z,27.8903,-94.0367,4.0,4.778807383,286.1594546,6.23,'11111222,11111222,11111222' 
TABS,ioos:station:wmo:42046:1,2005-04-26T18:00:00Z,27.8903,-94.0367,4.0,3.890347028,283.6790105,5.37,'11111222,11111222,11111222' 
TABS,ioos:station:wmo:42046:1,2005-04-26T18:30:00Z,27.8903,-94.0367,4.0,6.75,306.8698114,9.18,'11111222,11111222,11111222' 
TABS,ioos:station:wmo:42046:1,2005-04-26T19:00:00Z,27.8903,-94.0367,4.0,8.675574909,326.0899976,11.84,'11111222,11111222,11111222' 
TABS,ioos:station:wmo:42046:1,2005-04-26T19:30:00Z,27.8903,-94.0367,4.0,7.208335453,316.6300472,9.53,'11111222,11111222,11111222' 
TABS,ioos:station:wmo:42046:1,2005-04-26T20:00:00Z,27.8903,-94.0367,4.0,7.173311648,325.335027,9.36,'11111222,11111222,11111222' 
TABS,ioos:station:wmo:42046:1,2005-04-26T20:30:00Z,27.8903,-94.0367,4.0,6.052115333,325.7058819,7.56,'11111222,11111222,11111222' 
TABS,ioos:station:wmo:42046:1,2005-04-26T21:00:00Z,27.8903,-94.0367,4.0,5.428848865,324.1432074,7.33,'11111222,11111222,11111222' 
TABS,ioos:station:wmo:42046:1,2005-04-26T21:30:00Z,27.8903,-94.0367,4.0,6.892699036,334.4757489,9.39,'11111222,11111222,11111222' 
TABS,ioos:station:wmo:42046:1,2005-04-26T22:00:00Z,27.8903,-94.0367,4.0,6.535457138,334.7287326,8.46,'11111222,11111222,11111222' 
TABS,ioos:station:wmo:42046:1,2005-04-26T22:30:00Z,27.8903,-94.0367,4.0,6.445564366,334.5479693,8.13,'11111222,11111222,11111222' 
TABS,ioos:station:wmo:42046:1,2005-04-26T23:00:00Z,27.8903,-94.0367,4.0,6.130130504,335.3160979,7.88,'11111222,11111222,11111222' 
TABS,ioos:station:wmo:42046:1,2005-04-26T23:30:00Z,27.8903,-94.0367,4.0,6.229028817,339.1208215,8.23,'11111222,11111222,11111222' 
TABS,ioos:station:wmo:42046:1,2005-04-27T00:00:00Z,27.8903,-94.0367,4.0,6.420918937,336.988723,8.12,'11111222,11111222,11111222' 
TABS,ioos:station:wmo:42046:1,2005-04-27T00:30:00Z,27.8903,-94.0367,4.0,5.78070065,339.6526033,7.39,'11111222,11111222,11111222' 
TABS,ioos:station:wmo:42046:1,2005-04-27T01:00:00Z,27.8903,-94.0367,4.0,5.320939767,339.9983304,7.03,'11111222,11111222,11111222' 
TABS,ioos:station:wmo:42046:1,2005-04-27T01:30:00Z,27.8903,-94.0367,4.0,5.419344979,344.809615,7.08,'11111222,11111222,11111222' 
TABS,ioos:station:wmo:42046:1,2005-04-27T02:00:00Z,27.8903,-94.0367,4.0,4.798541445,347.2378927,6.08,'11111222,11111222,11111222' 
TABS,ioos:station:wmo:42046:1,2005-04-27T02:30:00Z,27.8903,-94.0367,4.0,3.953795645,350.5374895,5.14,'11111222,11111222,11111222' 
TABS,ioos:station:wmo:42046:1,2005-04-27T03:00:00Z,27.8903,-94.0367,4.0,3.673064116,357.6593084,4.76,'11111222,11111222,11111222' 
TABS,ioos:station:wmo:42046:1,2005-04-27T03:30:00Z,27.8903,-94.0367,4.0,3.272201094,357.8981401,4.5,'11111222,11111222,11111222' 
TABS,ioos:station:wmo:42046:1,2005-04-27T04:00:00Z,27.8903,-94.0367,4.0,4.5500989,359.6220215,5.94,'11111222,11144222,11111222' 
TABS,ioos:station:wmo:42046:1,2005-04-27T04:30:00Z,27.8903,-94.0367,4.0,4.982900762,358.0446733,6.36,'11111222,11111222,11111222' 
TABS,ioos:station:wmo:42046:1,2005-04-27T05:00:00Z,27.8903,-94.0367,4.0,5.53073232,0.932186086,7.76,'11111222,11111222,11111222' 
TABS,ioos:station:wmo:42046:1,2005-04-27T05:30:00Z,27.8903,-94.0367,4.0,6.08271321,5.94468687,8.38,'11111222,11111222,11111222' 
TABS,ioos:station:wmo:42046:1,2005-04-27T06:00:00Z,27.8903,-94.0367,4.0,6.19033117,10.32944748,8.12,'11111222,11111222,11111222' 
TABS,ioos:station:wmo:42046:1,2005-04-27T06:30:00Z,27.8903,-94.0367,4.0,6.104400052,16.26746499,8.16,'11111222,11111222,11111222' 
TABS,ioos:station:wmo:42046:1,2005-04-27T07:00:00Z,27.8903,-94.0367,4.0,5.992036382,28.61781358,7.69,'11111222,11111222,11111222' 
TABS,ioos:station:wmo:42046:1,2005-04-27T07:30:00Z,27.8903,-94.0367,4.0,5.605283222,31.87507775,7.39,'11111222,11111222,11111222' 
TABS,ioos:station:wmo:42046:1,2005-04-27T08:00:00Z,27.8903,-94.0367,4.0,5.884012237,36.98645121,7.48,'11111222,11111222,11111222' 
TABS,ioos:station:wmo:42046:1,2005-04-27T08:30:00Z,27.8903,-94.0367,4.0,6.424990272,38.61772642,8.28,'11111222,11111222,11111222' 
TABS,ioos:station:wmo:42046:1,2005-04-27T09:00:00Z,27.8903,-94.0367,4.0,7.144928271,46.70103494,9.26,'11111222,11111222,11111222' 
TABS,ioos:station:wmo:42046:1,2005-04-27T09:30:00Z,27.8903,-94.0367,4.0,6.357554561,45.82815092,8.4,'11111222,11111222,11111222' 
TABS,ioos:station:wmo:42046:1,2005-04-27T10:00:00Z,27.8903,-94.0367,4.0,6.383925125,50.27454015,8.58,'11111222,11111222,11111222' 
TABS,ioos:station:wmo:42046:1,2005-04-27T10:30:00Z,27.8903,-94.0367,4.0,6.378314824,59.57509592,8.9,'11111222,11111222,11111222' 
TABS,ioos:station:wmo:42046:1,2005-04-27T11:00:00Z,27.8903,-94.0367,4.0,6.802330483,62.98256275,8.73,'11111222,11111222,11111222' 
TABS,ioos:station:wmo:42046:1,2005-04-27T11:30:00Z,27.8903,-94.0367,4.0,6.243748874,70.34580098,8.11,'11111222,11111222,11111222' 
TABS,ioos:station:wmo:42046:1,2005-04-27T12:00:00Z,27.8903,-94.0367,4.0,6.38846617,83.70892302,8.52,'11111222,11111222,11111222' 
TABS,ioos:station:wmo:42046:1,2005-04-27T12:30:00Z,27.8903,-94.0367,4.0,5.801810062,93.65682895,7.33,'11111222,11111222,11111222' 
TABS,ioos:station:wmo:42046:1,2005-04-27T13:00:00Z,27.8903,-94.0367,4.0,5.706986946,94.42221596,7.67,'11111222,11111222,11111222' 
TABS,ioos:station:wmo:42046:1,2005-04-27T13:30:00Z,27.8903,-94.0367,4.0,5.573302432,99.91904835,7.23,'11111222,11111222,11111222' 
TABS,ioos:station:wmo:42046:1,2005-04-27T14:00:00Z,27.8903,-94.0367,4.0,5.438317755,101.4549604,6.94,'11111222,11111222,11111222' 
TABS,ioos:station:wmo:42046:1,2005-04-27T14:30:00Z,27.8903,-94.0367,4.0,5.665624414,118.6915231,7.52,'11111222,11111222,11111222' 
TABS,ioos:station:wmo:42046:1,2005-04-27T15:00:00Z,27.8903,-94.0367,4.0,5.489936247,122.503555,7.02,'11111222,11111222,11111222' 
TABS,ioos:station:wmo:42046:1,2005-04-27T15:30:00Z,27.8903,-94.0367,4.0,5.863659267,130.781795,7.93,'11111222,11111222,11111222' 
TABS,ioos:station:wmo:42046:1,2005-04-27T16:00:00Z,27.8903,-94.0367,4.0,5.505133967,131.3918553,7.2,'11111222,11111222,11111222' 
TABS,ioos:station:wmo:42046:1,2005-04-27T16:30:00Z,27.8903,-94.0367,4.0,5.129571132,133.0253863,6.8,'11111222,11111222,11111222' 
TABS,ioos:station:wmo:42046:1,2005-04-27T17:00:00Z,27.8903,-94.0367,4.0,4.81178761,131.2086528,6.13,'11111222,11111222,11111222' 
TABS,ioos:station:wmo:42046:1,2005-04-27T17:30:00Z,27.8903,-94.0367,4.0,4.180550203,124.8688533,5.52,'11111222,11111222,11111222' 
TABS,ioos:station:wmo:42046:1,2005-04-27T18:00:00Z,27.8903,-94.0367,4.0,4.119623769,115.4457679,5.44,'11111222,11111222,11111222' 